Year,Month,Day,Hour,Minute,Value (Times are PST for temperature in C)
2021,06,08,00,00,9.90
2021,06,08,00,01,9.90
2021,06,08,00,02,9.90
2021,06,08,00,03,9.90
2021,06,08,00,04,9.90
2021,06,08,00,05,9.80
2021,06,08,00,06,9.80
2021,06,08,00,07,9.80
2021,06,08,00,08,9.80
2021,06,08,00,09,9.80
2021,06,08,00,10,9.80
2021,06,08,00,11,9.80
2021,06,08,00,12,9.80
2021,06,08,00,13,9.80
2021,06,08,00,14,9.70
2021,06,08,00,15,9.70
2021,06,08,00,16,9.70
2021,06,08,00,17,9.70
2021,06,08,00,18,9.70
2021,06,08,00,19,9.70
2021,06,08,00,20,9.70
2021,06,08,00,21,9.70
2021,06,08,00,22,9.70
2021,06,08,00,23,9.70
2021,06,08,00,24,9.70
2021,06,08,00,25,9.70
2021,06,08,00,26,9.70
2021,06,08,00,27,9.70
2021,06,08,00,28,9.70
2021,06,08,00,29,9.70
2021,06,08,00,30,9.70
2021,06,08,00,31,9.70
2021,06,08,00,32,9.70
2021,06,08,00,33,9.70
2021,06,08,00,34,9.60
2021,06,08,00,35,9.60
2021,06,08,00,36,9.60
2021,06,08,00,37,9.60
2021,06,08,00,38,9.60
2021,06,08,00,39,9.60
2021,06,08,00,40,9.60
2021,06,08,00,41,9.60
2021,06,08,00,42,9.60
2021,06,08,00,43,9.60
2021,06,08,00,44,9.60
2021,06,08,00,45,9.60
2021,06,08,00,46,9.60
2021,06,08,00,47,9.60
2021,06,08,00,48,9.60
2021,06,08,00,49,9.60
2021,06,08,00,50,9.50
2021,06,08,00,51,9.50
2021,06,08,00,52,9.50
2021,06,08,00,53,9.50
2021,06,08,00,54,9.40
2021,06,08,00,55,9.40
2021,06,08,00,56,9.40
2021,06,08,00,57,9.40
2021,06,08,00,58,9.40
2021,06,08,00,59,9.40
2021,06,08,01,00,9.40
2021,06,08,01,01,9.40
2021,06,08,01,02,9.30
2021,06,08,01,03,9.30
2021,06,08,01,04,9.30
2021,06,08,01,05,9.30
2021,06,08,01,06,9.30
2021,06,08,01,07,9.30
2021,06,08,01,08,9.30
2021,06,08,01,09,9.30
2021,06,08,01,10,9.30
2021,06,08,01,11,9.20
2021,06,08,01,12,9.20
2021,06,08,01,13,9.20
2021,06,08,01,14,9.20
2021,06,08,01,15,9.20
2021,06,08,01,16,9.20
2021,06,08,01,17,9.10
2021,06,08,01,18,9.10
2021,06,08,01,19,9.10
2021,06,08,01,20,9.10
2021,06,08,01,21,9.10
2021,06,08,01,22,9.10
2021,06,08,01,23,9.10
2021,06,08,01,24,9.10
2021,06,08,01,25,9.00
2021,06,08,01,26,9.00
2021,06,08,01,27,9.00
2021,06,08,01,28,9.00
2021,06,08,01,29,8.90
2021,06,08,01,30,8.90
2021,06,08,01,31,8.90
2021,06,08,01,32,8.90
2021,06,08,01,33,8.90
2021,06,08,01,34,8.90
2021,06,08,01,35,8.90
2021,06,08,01,36,8.90
2021,06,08,01,37,8.90
2021,06,08,01,38,8.90
2021,06,08,01,39,8.80
2021,06,08,01,40,8.80
2021,06,08,01,41,8.80
2021,06,08,01,42,8.80
2021,06,08,01,43,8.80
2021,06,08,01,44,8.80
2021,06,08,01,45,8.80
2021,06,08,01,46,8.80
2021,06,08,01,47,8.80
2021,06,08,01,48,8.80
2021,06,08,01,49,8.80
2021,06,08,01,50,8.70
2021,06,08,01,51,8.70
2021,06,08,01,52,8.70
2021,06,08,01,53,8.70
2021,06,08,01,54,8.70
2021,06,08,01,55,8.70
2021,06,08,01,56,8.70
2021,06,08,01,57,8.70
2021,06,08,01,58,8.70
2021,06,08,01,59,8.70
2021,06,08,02,00,8.70
2021,06,08,02,01,8.70
2021,06,08,02,02,8.70
2021,06,08,02,03,8.70
2021,06,08,02,04,8.70
2021,06,08,02,05,8.70
2021,06,08,02,06,8.60
2021,06,08,02,07,8.60
2021,06,08,02,08,8.60
2021,06,08,02,09,8.60
2021,06,08,02,10,8.60
2021,06,08,02,11,8.60
2021,06,08,02,12,8.60
2021,06,08,02,13,8.60
2021,06,08,02,14,8.60
2021,06,08,02,15,8.60
2021,06,08,02,16,8.60
2021,06,08,02,17,8.60
2021,06,08,02,18,8.50
2021,06,08,02,19,8.50
2021,06,08,02,20,8.50
2021,06,08,02,21,8.50
2021,06,08,02,22,8.60
2021,06,08,02,23,8.60
2021,06,08,02,24,8.60
2021,06,08,02,25,8.60
2021,06,08,02,26,8.60
2021,06,08,02,27,8.60
2021,06,08,02,28,8.60
2021,06,08,02,29,8.60
2021,06,08,02,30,8.60
2021,06,08,02,31,8.60
2021,06,08,02,32,8.60
2021,06,08,02,33,8.60
2021,06,08,02,34,8.60
2021,06,08,02,35,8.60
2021,06,08,02,36,8.60
2021,06,08,02,37,8.60
2021,06,08,02,38,8.60
2021,06,08,02,39,8.60
2021,06,08,02,40,8.60
2021,06,08,02,41,8.60
2021,06,08,02,42,8.60
2021,06,08,02,43,8.60
2021,06,08,02,44,8.60
2021,06,08,02,45,8.60
2021,06,08,02,46,8.60
2021,06,08,02,47,8.60
2021,06,08,02,48,8.60
2021,06,08,02,49,8.60
2021,06,08,02,50,8.60
2021,06,08,02,51,8.60
2021,06,08,02,52,8.60
2021,06,08,02,53,8.50
2021,06,08,02,54,8.50
2021,06,08,02,55,8.50
2021,06,08,02,56,8.50
2021,06,08,02,57,8.50
2021,06,08,02,58,8.50
2021,06,08,02,59,8.50
2021,06,08,03,00,8.50
2021,06,08,03,01,8.50
2021,06,08,03,02,8.50
2021,06,08,03,03,8.40
2021,06,08,03,04,8.40
2021,06,08,03,05,8.40
2021,06,08,03,06,8.40
2021,06,08,03,07,8.40
2021,06,08,03,08,8.40
2021,06,08,03,09,8.40
2021,06,08,03,10,8.40
2021,06,08,03,11,8.40
2021,06,08,03,12,8.40
2021,06,08,03,13,8.40
2021,06,08,03,14,8.40
2021,06,08,03,15,8.40
2021,06,08,03,16,8.40
2021,06,08,03,17,8.40
2021,06,08,03,18,8.40
2021,06,08,03,19,8.40
2021,06,08,03,20,8.40
2021,06,08,03,21,8.40
2021,06,08,03,22,8.40
2021,06,08,03,23,8.40
2021,06,08,03,24,8.40
2021,06,08,03,25,8.40
2021,06,08,03,26,8.40
2021,06,08,03,27,8.40
2021,06,08,03,28,8.40
2021,06,08,03,29,8.30
2021,06,08,03,30,8.30
2021,06,08,03,31,8.30
2021,06,08,03,32,8.30
2021,06,08,03,33,8.30
2021,06,08,03,34,8.30
2021,06,08,03,35,8.30
2021,06,08,03,36,8.20
2021,06,08,03,37,8.30
2021,06,08,03,38,8.30
2021,06,08,03,39,8.30
2021,06,08,03,40,8.30
2021,06,08,03,41,8.30
2021,06,08,03,42,8.30
2021,06,08,03,43,8.30
2021,06,08,03,44,8.40
2021,06,08,03,45,8.40
2021,06,08,03,46,8.40
2021,06,08,03,47,8.40
2021,06,08,03,48,8.40
2021,06,08,03,49,8.40
2021,06,08,03,50,8.40
2021,06,08,03,51,8.40
2021,06,08,03,52,8.40
2021,06,08,03,53,8.40
2021,06,08,03,54,8.50
2021,06,08,03,55,8.50
2021,06,08,03,56,8.50
2021,06,08,03,57,8.60
2021,06,08,03,58,8.60
2021,06,08,03,59,8.60
2021,06,08,04,00,8.70
2021,06,08,04,01,8.70
2021,06,08,04,02,8.70
2021,06,08,04,03,8.70
2021,06,08,04,04,8.70
2021,06,08,04,05,8.70
2021,06,08,04,06,8.80
2021,06,08,04,07,8.80
2021,06,08,04,08,8.80
2021,06,08,04,09,8.70
2021,06,08,05,04,7.70
2021,06,08,05,05,7.70
2021,06,08,05,06,7.70
2021,06,08,05,07,7.60
2021,06,08,05,08,7.60
2021,06,08,05,09,7.60
2021,06,08,05,10,7.60
2021,06,08,05,11,7.60
2021,06,08,05,12,7.60
2021,06,08,05,13,7.60
2021,06,08,05,14,7.60
2021,06,08,05,15,7.60
2021,06,08,05,16,7.60
2021,06,08,05,17,7.60
2021,06,08,05,18,7.60
2021,06,08,05,19,7.60
2021,06,08,05,20,7.60
2021,06,08,05,21,7.60
2021,06,08,05,22,7.70
2021,06,08,05,23,7.70
2021,06,08,05,24,7.70
2021,06,08,05,25,7.70
2021,06,08,05,26,7.70
2021,06,08,05,27,7.70
2021,06,08,05,28,7.70
2021,06,08,05,29,7.70
2021,06,08,05,30,7.70
2021,06,08,05,31,7.70
2021,06,08,05,32,7.70
2021,06,08,05,33,7.80
2021,06,08,05,34,7.80
2021,06,08,05,35,7.80
2021,06,08,05,36,7.80
2021,06,08,05,37,7.80
2021,06,08,05,38,7.80
2021,06,08,05,39,7.80
2021,06,08,05,40,7.80
2021,06,08,05,41,7.80
2021,06,08,05,42,7.80
2021,06,08,05,43,7.80
2021,06,08,05,44,7.80
2021,06,08,05,45,7.80
2021,06,08,05,46,7.70
2021,06,08,05,47,7.70
2021,06,08,05,48,7.70
2021,06,08,05,49,7.70
2021,06,08,05,50,7.70
2021,06,08,05,51,7.70
2021,06,08,05,52,7.70
2021,06,08,05,53,7.70
2021,06,08,05,54,7.70
2021,06,08,05,55,7.70
2021,06,08,05,56,7.70
2021,06,08,05,57,7.80
2021,06,08,05,58,7.80
2021,06,08,05,59,7.80
2021,06,08,06,00,7.80
2021,06,08,06,01,7.80
2021,06,08,06,02,7.80
2021,06,08,06,03,7.80
2021,06,08,06,04,7.80
2021,06,08,06,05,7.80
2021,06,08,06,06,7.80
2021,06,08,06,07,7.80
2021,06,08,06,08,7.80
2021,06,08,06,09,7.80
2021,06,08,06,10,7.80
2021,06,08,06,11,7.80
2021,06,08,06,12,7.80
2021,06,08,06,13,7.80
2021,06,08,06,14,7.80
2021,06,08,06,15,7.90
2021,06,08,06,16,7.90
2021,06,08,06,17,7.90
2021,06,08,06,18,7.90
2021,06,08,06,19,7.90
2021,06,08,06,20,8.00
2021,06,08,06,21,8.00
2021,06,08,06,22,8.00
2021,06,08,06,23,8.00
2021,06,08,06,24,8.10
2021,06,08,06,25,8.10
2021,06,08,06,26,8.10
2021,06,08,06,27,8.20
2021,06,08,06,28,8.20
2021,06,08,06,29,8.30
2021,06,08,06,30,8.30
2021,06,08,06,31,8.40
2021,06,08,06,32,8.50
2021,06,08,06,33,8.50
2021,06,08,06,34,8.60
2021,06,08,06,35,8.70
2021,06,08,06,36,8.80
2021,06,08,06,37,8.80
2021,06,08,06,38,8.90
2021,06,08,06,39,9.00
2021,06,08,06,40,9.10
2021,06,08,06,41,9.20
2021,06,08,06,42,9.20
2021,06,08,06,43,9.30
2021,06,08,06,44,9.40
2021,06,08,06,45,9.40
2021,06,08,06,46,9.50
2021,06,08,06,47,9.60
2021,06,08,06,48,9.70
2021,06,08,06,49,9.80
2021,06,08,06,50,9.90
2021,06,08,06,51,10.00
2021,06,08,06,52,10.10
2021,06,08,06,53,10.20
2021,06,08,06,54,10.20
2021,06,08,06,55,10.30
2021,06,08,06,56,10.30
2021,06,08,06,57,10.30
2021,06,08,06,58,10.40
2021,06,08,06,59,10.40
2021,06,08,07,00,10.40
2021,06,08,07,01,10.40
2021,06,08,07,02,10.40
2021,06,08,07,03,10.40
2021,06,08,07,04,10.40
2021,06,08,07,05,10.40
2021,06,08,07,06,10.40
2021,06,08,07,07,10.40
2021,06,08,07,08,10.40
2021,06,08,07,09,10.40
2021,06,08,07,10,10.40
2021,06,08,07,11,10.30
2021,06,08,07,12,10.30
2021,06,08,07,13,10.30
2021,06,08,07,14,10.30
2021,06,08,07,15,10.30
2021,06,08,07,16,10.30
2021,06,08,07,17,10.30
2021,06,08,07,18,10.30
2021,06,08,07,19,10.30
2021,06,08,07,20,10.20
2021,06,08,07,21,10.20
2021,06,08,07,22,10.20
2021,06,08,07,23,10.20
2021,06,08,07,24,10.30
2021,06,08,07,25,10.30
2021,06,08,07,26,10.30
2021,06,08,07,27,10.40
2021,06,08,07,28,10.40
2021,06,08,07,29,10.50
2021,06,08,07,30,10.60
2021,06,08,07,31,10.70
2021,06,08,07,32,10.80
2021,06,08,07,33,10.80
2021,06,08,07,34,10.90
2021,06,08,07,35,10.80
2021,06,08,07,36,10.80
2021,06,08,07,37,10.90
2021,06,08,07,38,10.90
2021,06,08,07,39,10.90
2021,06,08,07,40,10.90
2021,06,08,07,41,10.80
2021,06,08,07,42,10.80
2021,06,08,07,43,10.80
2021,06,08,07,44,10.90
2021,06,08,07,45,10.90
2021,06,08,07,46,10.90
2021,06,08,07,47,10.90
2021,06,08,07,48,10.90
2021,06,08,07,49,10.90
2021,06,08,07,50,11.00
2021,06,08,07,51,11.00
2021,06,08,07,52,11.10
2021,06,08,07,53,11.20
2021,06,08,07,54,11.20
2021,06,08,07,55,11.30
2021,06,08,07,56,11.40
2021,06,08,07,57,11.50
2021,06,08,07,58,11.60
2021,06,08,07,59,11.70
2021,06,08,08,00,11.80
2021,06,08,08,01,11.80
2021,06,08,08,02,11.90
2021,06,08,08,03,12.00
2021,06,08,08,04,12.00
2021,06,08,08,05,12.10
2021,06,08,08,06,12.20
2021,06,08,08,07,12.20
2021,06,08,08,08,12.30
2021,06,08,08,09,12.30
2021,06,08,08,10,12.40
2021,06,08,08,11,12.40
2021,06,08,08,12,12.40
2021,06,08,08,13,12.40
2021,06,08,08,14,12.40
2021,06,08,08,15,12.30
2021,06,08,08,16,12.30
2021,06,08,08,17,12.30
2021,06,08,08,18,12.20
2021,06,08,08,19,12.20
2021,06,08,08,20,12.20
2021,06,08,08,21,12.20
2021,06,08,08,22,12.30
2021,06,08,08,23,12.30
2021,06,08,08,24,12.30
2021,06,08,08,25,12.30
2021,06,08,08,26,12.30
2021,06,08,08,27,12.40
2021,06,08,08,28,12.40
2021,06,08,08,29,12.40
2021,06,08,08,30,12.40
2021,06,08,08,31,12.40
2021,06,08,08,32,12.40
2021,06,08,08,33,12.40
2021,06,08,08,34,12.50
2021,06,08,08,35,12.50
2021,06,08,08,36,12.60
2021,06,08,08,37,12.60
2021,06,08,08,38,12.60
2021,06,08,08,39,12.70
2021,06,08,08,40,12.70
2021,06,08,08,41,12.70
2021,06,08,08,42,12.70
2021,06,08,08,43,12.70
2021,06,08,08,44,12.80
2021,06,08,08,45,12.80
2021,06,08,08,46,12.90
2021,06,08,08,47,12.90
2021,06,08,08,48,13.00
2021,06,08,08,49,13.00
2021,06,08,08,50,13.10
2021,06,08,08,51,13.10
2021,06,08,08,52,13.10
2021,06,08,08,53,13.20
2021,06,08,08,54,13.20
2021,06,08,08,55,13.20
2021,06,08,08,56,13.20
2021,06,08,08,57,13.20
2021,06,08,08,58,13.30
2021,06,08,08,59,13.30
2021,06,08,09,00,13.30
2021,06,08,09,01,13.40
2021,06,08,09,02,13.40
2021,06,08,09,03,13.30
2021,06,08,09,04,13.30
2021,06,08,09,05,13.30
2021,06,08,09,06,13.30
2021,06,08,09,07,13.30
2021,06,08,09,08,13.30
2021,06,08,09,09,13.20
2021,06,08,09,10,13.20
2021,06,08,09,11,13.20
2021,06,08,09,12,13.30
2021,06,08,09,13,13.30
2021,06,08,09,14,13.40
2021,06,08,09,15,13.40
2021,06,08,09,16,13.50
2021,06,08,09,17,13.60
2021,06,08,09,18,13.60
2021,06,08,09,19,13.60
2021,06,08,09,20,13.50
2021,06,08,09,21,13.50
2021,06,08,09,22,13.40
2021,06,08,09,23,13.40
2021,06,08,09,24,13.40
2021,06,08,09,25,13.40
2021,06,08,09,26,13.40
2021,06,08,09,27,13.40
2021,06,08,09,28,13.40
2021,06,08,09,29,13.40
2021,06,08,09,30,13.40
2021,06,08,09,31,13.40
2021,06,08,09,32,13.40
2021,06,08,09,33,13.30
2021,06,08,09,34,13.30
2021,06,08,09,35,13.30
2021,06,08,09,36,13.30
2021,06,08,09,37,13.30
2021,06,08,09,38,13.40
2021,06,08,09,39,13.40
2021,06,08,09,40,13.40
2021,06,08,09,41,13.40
2021,06,08,09,42,13.40
2021,06,08,09,43,13.40
2021,06,08,09,44,13.40
2021,06,08,09,45,13.40
2021,06,08,09,46,13.40
2021,06,08,09,47,13.40
2021,06,08,09,48,13.40
2021,06,08,09,49,13.40
2021,06,08,09,50,13.40
2021,06,08,09,51,13.30
2021,06,08,09,52,13.30
2021,06,08,09,53,13.30
2021,06,08,09,54,13.30
2021,06,08,09,55,13.40
2021,06,08,09,56,13.40
2021,06,08,09,57,13.40
2021,06,08,09,58,13.50
2021,06,08,09,59,13.50
2021,06,08,10,00,13.60
2021,06,08,10,01,13.70
2021,06,08,10,02,13.80
2021,06,08,10,03,13.80
2021,06,08,10,04,13.90
2021,06,08,10,05,13.90
2021,06,08,10,06,13.90
2021,06,08,10,07,13.90
2021,06,08,10,08,14.00
2021,06,08,10,09,14.00
2021,06,08,10,10,14.00
2021,06,08,10,11,14.10
2021,06,08,10,12,14.10
2021,06,08,10,13,14.30
2021,06,08,10,14,14.40
2021,06,08,10,15,14.50
2021,06,08,10,16,14.60
2021,06,08,10,17,14.60
2021,06,08,10,18,14.60
2021,06,08,10,19,14.60
2021,06,08,10,20,14.60
2021,06,08,10,21,14.60
2021,06,08,10,22,14.60
2021,06,08,10,23,14.60
2021,06,08,10,24,14.60
2021,06,08,10,25,14.60
2021,06,08,10,26,14.70
2021,06,08,10,27,14.70
2021,06,08,10,28,14.70
2021,06,08,10,29,14.70
2021,06,08,10,30,14.80
2021,06,08,10,31,14.90
2021,06,08,10,32,14.90
2021,06,08,10,33,15.00
2021,06,08,10,34,15.10
2021,06,08,10,35,15.10
2021,06,08,10,36,15.10
2021,06,08,10,37,15.10
2021,06,08,10,38,15.10
2021,06,08,10,39,15.20
2021,06,08,10,40,15.30
2021,06,08,10,41,15.30
2021,06,08,10,42,15.30
2021,06,08,10,43,15.40
2021,06,08,10,44,15.50
2021,06,08,10,45,15.50
2021,06,08,10,46,15.50
2021,06,08,10,47,15.50
2021,06,08,10,48,15.50
2021,06,08,10,49,15.50
2021,06,08,10,50,15.50
2021,06,08,10,51,15.60
2021,06,08,10,52,15.60
2021,06,08,10,53,15.70
2021,06,08,10,54,15.70
2021,06,08,10,55,15.70
2021,06,08,10,56,15.70
2021,06,08,10,57,15.80
2021,06,08,10,58,15.80
2021,06,08,10,59,15.80
2021,06,08,11,00,15.80
2021,06,08,11,01,15.70
2021,06,08,11,02,15.60
2021,06,08,11,03,15.50
2021,06,08,11,04,15.50
2021,06,08,11,05,15.40
2021,06,08,11,06,15.40
2021,06,08,11,07,15.40
2021,06,08,11,08,15.50
2021,06,08,11,09,15.50
2021,06,08,11,10,15.60
2021,06,08,11,11,15.60
2021,06,08,11,12,15.50
2021,06,08,11,13,15.40
2021,06,08,11,14,15.40
2021,06,08,11,15,15.40
2021,06,08,11,16,15.40
2021,06,08,11,17,15.40
2021,06,08,11,18,15.50
2021,06,08,11,19,15.50
2021,06,08,11,20,15.60
2021,06,08,11,21,15.70
2021,06,08,11,22,15.80
2021,06,08,11,23,15.90
2021,06,08,11,24,16.00
2021,06,08,11,25,16.00
2021,06,08,11,26,16.10
2021,06,08,11,27,16.20
2021,06,08,11,28,16.30
2021,06,08,11,29,16.30
2021,06,08,11,30,16.20
2021,06,08,11,31,16.20
2021,06,08,11,32,16.20
2021,06,08,11,33,16.20
2021,06,08,11,34,16.20
2021,06,08,11,35,16.20
2021,06,08,11,36,16.20
2021,06,08,11,37,16.20
2021,06,08,11,38,16.10
2021,06,08,11,39,16.10
2021,06,08,11,40,16.00
2021,06,08,11,41,15.80
2021,06,08,11,42,15.80
2021,06,08,11,43,15.70
2021,06,08,11,44,15.70
2021,06,08,11,45,15.70
2021,06,08,11,46,15.70
2021,06,08,11,47,15.70
2021,06,08,11,48,15.60
2021,06,08,11,49,15.60
2021,06,08,11,50,15.50
2021,06,08,11,51,15.50
2021,06,08,11,52,15.50
2021,06,08,11,53,15.50
2021,06,08,11,54,15.50
2021,06,08,11,55,15.60
2021,06,08,11,56,15.70
2021,06,08,11,57,15.70
2021,06,08,11,58,15.70
2021,06,08,11,59,15.70
2021,06,08,12,00,15.80
2021,06,08,12,01,15.80
2021,06,08,12,02,15.90
2021,06,08,12,03,16.00
2021,06,08,12,04,16.10
2021,06,08,12,05,16.20
2021,06,08,12,06,16.30
2021,06,08,12,07,16.40
2021,06,08,12,08,16.50
2021,06,08,12,09,16.50
2021,06,08,12,10,16.60
2021,06,08,12,11,16.80
2021,06,08,12,12,16.80
2021,06,08,12,13,16.90
2021,06,08,12,14,16.90
2021,06,08,12,15,16.90
2021,06,08,12,16,16.90
2021,06,08,12,17,16.80
2021,06,08,12,18,16.70
2021,06,08,12,19,16.70
2021,06,08,12,20,16.70
2021,06,08,12,21,16.70
2021,06,08,12,22,16.80
2021,06,08,12,23,16.80
2021,06,08,12,24,16.80
2021,06,08,12,25,16.80
2021,06,08,12,26,16.90
2021,06,08,12,27,16.90
2021,06,08,12,28,16.80
2021,06,08,12,29,16.80
2021,06,08,12,30,16.80
2021,06,08,12,31,16.80
2021,06,08,12,32,16.80
2021,06,08,12,33,16.60
2021,06,08,12,34,16.60
2021,06,08,12,35,16.60
2021,06,08,12,36,16.60
2021,06,08,12,37,16.60
2021,06,08,12,38,16.70
2021,06,08,12,39,16.80
2021,06,08,12,40,16.80
2021,06,08,12,41,16.80
2021,06,08,12,42,16.80
2021,06,08,12,43,16.80
2021,06,08,12,44,16.80
2021,06,08,12,45,16.80
2021,06,08,12,46,16.90
2021,06,08,12,47,16.90
2021,06,08,12,48,17.00
2021,06,08,12,49,17.00
2021,06,08,12,50,17.10
2021,06,08,12,51,17.10
2021,06,08,12,52,17.10
2021,06,08,12,53,17.10
2021,06,08,12,54,17.10
2021,06,08,12,55,17.10
2021,06,08,12,56,17.10
2021,06,08,12,57,17.10
2021,06,08,12,58,17.10
2021,06,08,12,59,17.10
2021,06,08,13,00,17.00
2021,06,08,13,01,17.00
2021,06,08,13,02,17.00
2021,06,08,13,03,17.00
2021,06,08,13,04,17.00
2021,06,08,13,05,17.00
2021,06,08,13,06,16.90
2021,06,08,13,07,16.90
2021,06,08,13,08,16.80
2021,06,08,13,09,16.80
2021,06,08,13,10,16.90
2021,06,08,13,11,16.90
2021,06,08,13,12,16.90
2021,06,08,13,13,17.00
2021,06,08,13,14,17.00
2021,06,08,13,15,17.10
2021,06,08,13,16,17.20
2021,06,08,13,17,17.30
2021,06,08,13,18,17.40
2021,06,08,13,19,17.50
2021,06,08,13,20,17.60
2021,06,08,13,21,17.60
2021,06,08,13,22,17.70
2021,06,08,13,23,17.70
2021,06,08,13,24,17.70
2021,06,08,13,25,17.80
2021,06,08,13,26,17.80
2021,06,08,13,27,17.80
2021,06,08,13,28,17.80
2021,06,08,13,29,17.80
2021,06,08,13,30,17.80
2021,06,08,13,31,17.70
2021,06,08,13,32,17.70
2021,06,08,13,33,17.70
2021,06,08,13,34,17.80
2021,06,08,13,35,17.90
2021,06,08,13,36,18.00
2021,06,08,13,37,18.10
2021,06,08,13,38,18.30
2021,06,08,13,39,18.30
2021,06,08,13,40,18.30
2021,06,08,13,41,18.20
2021,06,08,13,42,18.20
2021,06,08,13,43,18.10
2021,06,08,13,44,18.10
2021,06,08,13,45,18.10
2021,06,08,13,46,18.10
2021,06,08,13,47,18.10
2021,06,08,13,48,18.10
2021,06,08,13,49,18.10
2021,06,08,13,50,18.10
2021,06,08,13,51,18.20
2021,06,08,13,52,18.30
2021,06,08,13,53,18.30
2021,06,08,13,54,18.20
2021,06,08,13,55,18.20
2021,06,08,13,56,18.20
2021,06,08,13,57,18.20
2021,06,08,13,58,18.20
2021,06,08,13,59,18.30
2021,06,08,14,00,18.30
2021,06,08,14,01,18.30
2021,06,08,14,02,18.20
2021,06,08,14,03,18.20
2021,06,08,14,04,18.20
2021,06,08,14,05,18.20
2021,06,08,14,06,18.10
2021,06,08,14,07,18.10
2021,06,08,14,08,18.10
2021,06,08,14,09,18.10
2021,06,08,14,10,18.10
2021,06,08,14,11,18.20
2021,06,08,14,12,18.20
2021,06,08,14,13,18.30
2021,06,08,14,14,18.40
2021,06,08,14,15,18.50
2021,06,08,14,16,18.60
2021,06,08,14,17,18.70
2021,06,08,14,18,18.70
2021,06,08,14,19,18.80
2021,06,08,14,20,18.80
2021,06,08,14,21,18.80
2021,06,08,14,22,18.80
2021,06,08,14,23,18.80
2021,06,08,14,24,18.80
2021,06,08,14,25,18.70
2021,06,08,14,26,18.60
2021,06,08,14,27,18.50
2021,06,08,14,28,18.50
2021,06,08,14,29,18.40
2021,06,08,14,30,18.40
2021,06,08,14,31,18.40
2021,06,08,14,32,18.40
2021,06,08,14,33,18.40
2021,06,08,14,34,18.40
2021,06,08,14,35,18.50
2021,06,08,14,36,18.60
2021,06,08,14,37,18.60
2021,06,08,14,38,18.60
2021,06,08,14,39,18.60
2021,06,08,14,40,18.50
2021,06,08,14,41,18.50
2021,06,08,14,42,18.60
2021,06,08,14,43,18.60
2021,06,08,14,44,18.60
2021,06,08,14,45,18.70
2021,06,08,14,46,18.70
2021,06,08,14,47,18.80
2021,06,08,14,48,18.90
2021,06,08,14,49,18.80
2021,06,08,14,50,18.70
2021,06,08,14,51,18.70
2021,06,08,14,52,18.60
2021,06,08,14,53,18.70
2021,06,08,14,54,18.70
2021,06,08,14,55,18.70
2021,06,08,14,56,18.70
2021,06,08,14,57,18.70
2021,06,08,14,58,18.70
2021,06,08,14,59,18.60
2021,06,08,15,00,18.50
2021,06,08,15,01,18.40
2021,06,08,15,02,18.40
2021,06,08,15,03,18.40
2021,06,08,15,04,18.40
2021,06,08,15,05,18.40
2021,06,08,15,06,18.40
2021,06,08,15,07,18.40
2021,06,08,15,08,18.40
2021,06,08,15,09,18.40
2021,06,08,15,10,18.40
2021,06,08,15,11,18.40
2021,06,08,15,12,18.40
2021,06,08,15,13,18.50
2021,06,08,15,14,18.60
2021,06,08,15,15,18.60
2021,06,08,15,16,18.70
2021,06,08,15,17,18.80
2021,06,08,15,18,18.80
2021,06,08,15,19,18.80
2021,06,08,15,20,18.80
2021,06,08,15,21,18.80
2021,06,08,15,22,18.80
2021,06,08,15,23,18.70
2021,06,08,15,24,18.70
2021,06,08,15,25,18.60
2021,06,08,15,26,18.60
2021,06,08,15,27,18.60
2021,06,08,15,28,18.60
2021,06,08,15,29,18.60
2021,06,08,15,30,18.50
2021,06,08,15,31,18.50
2021,06,08,15,32,18.50
2021,06,08,15,33,18.50
2021,06,08,15,34,18.50
2021,06,08,15,35,18.50
2021,06,08,15,36,18.40
2021,06,08,15,37,18.40
2021,06,08,15,38,18.40
2021,06,08,15,39,18.30
2021,06,08,15,40,18.10
2021,06,08,15,41,18.00
2021,06,08,15,42,17.90
2021,06,08,15,43,17.80
2021,06,08,15,44,17.50
2021,06,08,15,45,17.40
2021,06,08,15,46,17.30
2021,06,08,15,47,17.30
2021,06,08,15,48,17.30
2021,06,08,15,49,17.40
2021,06,08,15,50,17.40
2021,06,08,15,51,17.50
2021,06,08,15,52,17.60
2021,06,08,15,53,17.60
2021,06,08,15,54,17.50
2021,06,08,15,55,17.40
2021,06,08,15,56,17.50
2021,06,08,15,57,17.50
2021,06,08,15,58,17.60
2021,06,08,15,59,17.70
2021,06,08,16,00,17.60
2021,06,08,16,01,17.60
2021,06,08,16,02,17.50
2021,06,08,16,03,17.40
2021,06,08,16,04,17.30
2021,06,08,16,05,17.10
2021,06,08,16,06,17.00
2021,06,08,16,07,16.90
2021,06,08,16,08,17.00
2021,06,08,16,09,17.00
2021,06,08,16,10,17.00
2021,06,08,16,11,16.90
2021,06,08,16,12,16.70
2021,06,08,16,13,16.50
2021,06,08,16,14,16.30
2021,06,08,16,15,16.30
2021,06,08,16,16,16.20
2021,06,08,16,17,16.30
2021,06,08,16,18,16.30
2021,06,08,16,19,16.30
2021,06,08,16,20,16.30
2021,06,08,16,21,16.30
2021,06,08,16,22,16.20
2021,06,08,16,23,16.20
2021,06,08,16,24,16.10
2021,06,08,16,25,16.10
2021,06,08,16,26,16.10
2021,06,08,16,27,16.20
2021,06,08,16,28,16.30
2021,06,08,16,29,16.30
2021,06,08,16,30,16.30
2021,06,08,16,31,16.30
2021,06,08,16,32,16.30
2021,06,08,16,33,16.20
2021,06,08,16,34,16.10
2021,06,08,16,35,16.10
2021,06,08,16,36,16.10
2021,06,08,16,37,16.10
2021,06,08,16,38,16.10
2021,06,08,16,39,16.20
2021,06,08,16,40,16.20
2021,06,08,16,41,16.10
2021,06,08,16,42,16.10
2021,06,08,16,43,16.20
2021,06,08,16,44,16.10
2021,06,08,16,45,16.10
2021,06,08,16,46,16.00
2021,06,08,16,47,15.90
2021,06,08,16,48,15.90
2021,06,08,16,49,15.90
2021,06,08,16,50,16.00
2021,06,08,16,51,16.00
2021,06,08,16,52,15.90
2021,06,08,16,53,15.80
2021,06,08,16,54,15.80
2021,06,08,16,55,15.70
2021,06,08,16,56,15.70
2021,06,08,16,57,15.60
2021,06,08,16,58,15.40
2021,06,08,16,59,15.30
2021,06,08,17,00,15.20
2021,06,08,17,01,15.10
2021,06,08,17,02,15.10
2021,06,08,17,03,15.10
2021,06,08,17,04,15.10
2021,06,08,17,05,15.20
2021,06,08,17,06,15.30
2021,06,08,17,07,15.30
2021,06,08,17,08,15.30
2021,06,08,17,09,15.30
2021,06,08,17,10,15.30
2021,06,08,17,11,15.30
2021,06,08,17,12,15.30
2021,06,08,17,13,15.30
2021,06,08,17,14,15.30
2021,06,08,17,15,15.30
2021,06,08,17,16,15.30
2021,06,08,17,17,15.30
2021,06,08,17,18,15.30
2021,06,08,17,19,15.20
2021,06,08,17,20,15.20
2021,06,08,17,21,15.20
2021,06,08,17,22,15.20
2021,06,08,17,23,15.20
2021,06,08,17,24,15.20
2021,06,08,17,25,15.20
2021,06,08,17,26,15.20
2021,06,08,17,27,15.10
2021,06,08,17,28,15.10
2021,06,08,17,29,15.00
2021,06,08,17,30,14.90
2021,06,08,17,31,14.90
2021,06,08,17,32,14.80
2021,06,08,17,33,14.80
2021,06,08,17,34,14.70
2021,06,08,17,35,14.70
2021,06,08,17,36,14.70
2021,06,08,17,37,14.80
2021,06,08,17,38,14.80
2021,06,08,17,39,14.80
2021,06,08,17,40,14.80
2021,06,08,17,41,14.80
2021,06,08,17,42,14.90
2021,06,08,17,43,14.90
2021,06,08,17,44,15.00
2021,06,08,17,45,15.10
2021,06,08,17,46,15.10
2021,06,08,17,47,15.10
2021,06,08,17,48,15.10
2021,06,08,17,49,15.10
2021,06,08,17,50,15.10
2021,06,08,17,51,15.10
2021,06,08,17,52,15.10
2021,06,08,17,53,15.00
2021,06,08,17,54,15.00
2021,06,08,17,55,14.90
2021,06,08,17,56,14.90
2021,06,08,17,57,14.80
2021,06,08,17,58,14.80
2021,06,08,17,59,14.70
2021,06,08,18,00,14.70
2021,06,08,18,01,14.70
2021,06,08,18,02,14.70
2021,06,08,18,03,14.70
2021,06,08,18,04,14.70
2021,06,08,18,05,14.70
2021,06,08,18,06,14.80
2021,06,08,18,07,14.80
2021,06,08,18,08,14.80
2021,06,08,18,09,14.80
2021,06,08,18,10,14.90
2021,06,08,18,11,14.90
2021,06,08,18,12,14.90
2021,06,08,18,13,14.90
2021,06,08,18,14,14.90
2021,06,08,18,15,14.90
2021,06,08,18,16,15.00
2021,06,08,18,17,15.00
2021,06,08,18,18,15.00
2021,06,08,18,19,15.00
2021,06,08,18,20,15.10
2021,06,08,18,21,15.10
2021,06,08,18,22,15.10
2021,06,08,18,23,15.10
2021,06,08,18,24,15.00
2021,06,08,18,25,15.00
2021,06,08,18,26,14.90
2021,06,08,18,27,14.90
2021,06,08,18,28,14.90